Regional Weather Roundup
Issued by NWS State College, PA

Home | Current Version | Previous Version | Graphics & Text | Print | Product List | Glossary Off
Versions: 1 2 3 4 5 6 7 8 9 10 11 12 13 14 15 16 17 18 19 20 21 22 23 24 25 26 27 28 29 30 31 32 33 34 35 36 37 38 39 40 41 42 43 44 45 46 47 48 49 50

907
ASUS41 KCTP 211803
RWRCTP
NATIONAL WEATHER SERVICE STATE COLLEGE PA
200 PM EDT THU SEP 21 2017

Note: "fair" indicates few or no clouds below 12,000 feet with no
significant weather and/or obstructions to visibility.

* = STATION THAT DOES NOT REPORT PRECIPITATION /E.G. RAIN...SNOW...ETC/
    THUNDER OR FOG.

PAZ002>004-007>009-013>016-020>023-029>032-211900-
WESTERN PENNSYLVANIA

CITY           SKY/WX    TMP DP  RH WIND       PRES   REMARKS
ERIE           SUNNY     79  65  62 N5        30.11F
MEADVILLE      SUNNY     84  62  47 N7        30.13F
FRANKLIN*      SUNNY     81  61  50 N5        30.14F
NEW CASTLE     FAIR      82  63  52 CALM      30.11F
BEAVER COUNTY  SUNNY     81  63  54 CALM      30.12F
BUTLER*        MOSUNNY   81  63  54 VRB3      30.12F
PITTSBURGH INT PTSUNNY   84  63  49 W3        30.11F
PITTSBURGH     MOSUNNY   82  60  47 VRB6      30.11F
INDIANA*       SUNNY     81  61  50 VRB5      30.14F
LATROBE        MOSUNNY   81  63  54 CALM      30.13S
WASHINGTON CO* PTSUNNY   81  63  54 CALM      30.12F
$$

PAZ004>006-010>012-017>019-024>028-033>037-041-042-045-046-049>053-211900-
CENTRAL PENNSYLVANIA

CITY           SKY/WX    TMP DP  RH WIND       PRES   REMARKS
BRADFORD       SUNNY     78  54  43 VRB3      30.16F
DUBOIS         SUNNY     79  58  48 CALM      30.13F
CLEARFIELD     SUNNY     83  55  38 CALM      30.12F
JOHNSTOWN      SUNNY     79  57  46 N5        30.16S
ALTOONA        SUNNY     81  60  48 NE7       30.12F
STATE COLLEGE  MOSUNNY   79  61  53 CALM      30.11F
WILLIAMSPORT   SUNNY     84  64  50 W7        30.05F
SELINSGROVE    SUNNY     82  66  58 VRB3      30.06F
FT INDIANTOWN  PTSUNNY   83  63  51 N6        30.04F
CAPITAL CITY   SUNNY     85  62  46 NW7       30.04F
HARRISBURG     MOSUNNY   84  67  56 W12       30.03F
YORK           SUNNY     83  65  54 NE8       30.05F
$$

PAZ038>040-043-044-047-048-054-055-060>062-067>071-211900-
EASTERN PENNSYLVANIA

CITY           SKY/WX    TMP DP  RH WIND       PRES   REMARKS
SCRANTON       SUNNY     82  63  52 VRB6      30.06F
MOUNT POCONO   CLOUDY    79  55  43 N8        30.09F
ALLENTOWN      SUNNY     86  64  47 NE6       30.01F
QUAKERTOWN*    PTCLDY    82  63  51 N6        30.03F
READING        SUNNY     85  64  49 N6        30.01F
LANCASTER      SUNNY     84  65  52 N9        30.04F
COATESVILLE    CLEAR     82  66  57 N8        30.05F
POTTSTOWN      SUNNY     83  62  49 VRB6      30.03F
BLUE BELL      SUNNY     82  63  51 NE7       30.02F
DOYLESTOWN     SUNNY     86  63  45 N9        30.01F
WILLOW GROVE   NOT AVBL
NORTH PHILA    SUNNY     86  64  47 N9        30.01F
PHILADELPHIA   MOSUNNY   86  61  42 N10       29.99F
$$




USA.gov is the U.S. government's official web portal to all federal, state and local government web resources and services.